PRC TEST SPACECRAFT2 (53357 NORAD) Tracking and Keplerian Element Data

This shows tracking and keplerian element data for the satellite.

Feedback or suggestion? Click here.




ElementValue
Catalog53357
NamePRC TEST SPACECRAFT2
Epoch Orbit821
Epoch Day270.21842061
Epoch Year2022
RAAN256.98
Inclination49.9911
Eccentricity0.0177107
Argument of Perigee8.1521
Mean Anonmoly352.2249
Mean Motion15.31166321
Decay Rate5.116E-05
L11 53357U 22093A 22270.21842061 .00005116 00000+0 11208-3 0 9993
L22 53357 49.9911 256.9800 0177107 8.1521 352.2249 15.31166321 8215

Live tracking and technical data element details for PRC TEST SPACECRAFT2 (NORAD 53357). PRC TEST SPACECRAFT2 can be tracked NOW for your location showing map with azimuth and elevation plus other details from your city location.

Track the satellite on the map from your city or location and see movement details for azimuth, elevation, latitude, longitude, range, height, and movement on the map or in text.







IsCatalogInMostPopularTable: catalog: 53357, numindb: 17
Update: records affected: 1



GetName: 53357 PRC TEST SPACECRAFT2

Hit Count: updated at: Wed, 28 Sep 2022 23:18:55 GMT